Location: Newark
(12.0500°N, 61.7500°W)
Time: 01:26:41
(UTC+00:00)

Envisat - Pass Details

Date: 23 January 2020
Orbit: 764 x 766 km, 98.1° (Epoch: 25 February)

Event Time Altitude Azimuth Distance (km) Brightness Sun altitude
Rises 09:17:25 0° 49° (NE) 3,220 6.7 -18.3°
Reaches altitude 10° 09:22:06 10° 89° (E) 2,294 6.6 -17.2°
Maximum altitude 09:22:57 10° 99° (E) 2,266 6.7 -17.0°
Drops below altitude 10° 09:23:49 10° 109° (ESE) 2,293 6.8 -16.8°
Sets 09:28:28 0° 148° (SSE) 3,219 7.0 -15.7°
